Total_Precipitation_Accumulation
1.76 1.78 1.80 1.66 1.54 1.48 1.51 1.72 2.05 1.82 1.19 0.89 0.92 0.98 1.09 1.21 1.41 1.27 1.18 1.30 1.37 1.45 1.56 1.65 1.74 1.85 2.12 2.74 3.72 5.07 5.72 5.02 4.12 3.91 3.94 4.18 4.55 5.03
1.64 1.70 1.74 1.66 1.57 1.50 1.54 1.56 1.69 1.91 1.61 0.98 0.89 0.93 1.07 1.16 1.34 1.22 1.23 1.44 1.41 1.44 1.51 1.59 1.68 1.74 1.88 2.16 2.69 3.55 4.75 5.43 5.05 4.42 4.21 4.40 4.57 4.79
1.56 1.57 1.57 1.57 1.59 1.52 1.51 1.53 1.50 1.59 1.62 1.06 0.89 0.94 1.14 1.23 1.23 1.19 1.25 1.30 1.30 1.46 1.50 1.53 1.60 1.69 1.87 2.07 2.36 2.80 3.46 4.43 5.13 5.01 4.66 4.54 4.53 4.55
1.50 1.50 1.49 1.50 1.54 1.48 1.45 1.42 1.36 1.32 1.40 1.23 0.98 0.97 1.07 1.15 1.25 1.33 1.32 1.32 1.26 1.41 1.44 1.52 1.65 1.71 1.82 2.01 2.26 2.56 2.91 3.42 4.11 4.66 4.74 4.53 4.40 4.44
1.41 1.43 1.41 1.47 1.54 1.47 1.45 1.38 1.28 1.20 1.22 1.26 1.09 1.01 1.06 1.11 1.29 1.45 1.45 1.46 1.39 1.44 1.47 1.53 1.63 1.74 1.82 1.94 2.16 2.39 2.57 2.73 3.10 3.84 4.41 4.36 4.26 4.22
1.35 1.31 1.33 1.46 1.52 1.55 1.59 1.47 1.39 1.40 1.40 1.44 1.32 1.19 1.19 1.20 1.39 1.65 1.76 1.71 1.63 1.44 1.51 1.56 1.68 1.80 1.83 1.84 1.92 2.04 2.19 2.46 2.77 3.18 3.79 4.17 4.07 4.02
1.30 1.27 1.33 1.49 1.56 1.75 1.89 1.77 1.75 1.85 1.81 1.79 1.66 1.55 1.47 1.49 1.57 1.61 1.79 1.83 1.82 1.63 1.52 1.44 1.47 1.48 1.59 1.72 1.80 1.86 1.98 2.17 2.44 2.76 3.15 3.62 3.93 3.99
1.32 1.26 1.28 1.43 1.47 1.60 1.81 1.91 1.98 2.12 2.20 2.16 2.03 1.86 1.59 1.48 1.51 1.66 1.77 1.98 2.07 1.73 1.63 1.59 1.52 1.61 1.56 1.57 1.80 1.84 1.91 2.08 2.27 2.52 2.80 3.08 3.46 3.85
1.32 1.31 1.31 1.35 1.44 1.40 1.53 1.62 1.67 1.83 2.06 2.19 2.24 1.82 1.57 1.49 1.72 1.93 1.89 1.97 1.93 1.83 1.95 1.92 1.62 1.66 1.59 1.71 1.94 1.86 1.88 1.98 2.12 2.28 2.50 2.75 3.02 3.37
1.33 1.30 1.30 1.31 1.41 1.64 1.60 1.55 1.45 1.47 1.67 1.87 2.14 1.97 1.76 1.80 2.15 2.48 2.56 2.43 2.01 1.79 1.97 2.20 1.73 1.62 1.68 1.79 1.98 1.91 1.83 1.85 1.96 2.11 2.25 2.41 2.61 2.91
1.32 1.29 1.30 1.29 1.57 1.87 1.77 1.61 1.42 1.32 1.44 1.77 2.09 2.23 2.28 2.42 2.66 2.98 3.14 2.97 2.48 1.90 1.84 2.14 1.93 1.72 1.88 2.10 2.16 2.11 1.87 1.80 1.87 1.99 2.05 2.08 2.26 2.56
1.32 1.28 1.44 1.53 1.74 1.89 1.72 1.68 1.76 1.50 1.34 1.41 1.51 1.63 1.69 1.85 2.26 2.54 2.87 2.99 2.61 2.36 1.95 2.08 2.19 2.21 2.52 2.36 2.20 2.04 1.83 1.78 1.81 1.89 1.93 1.91 2.02 2.04
1.36 1.31 1.30 1.59 1.70 1.79 1.82 1.74 1.98 1.85 1.56 1.56 1.54 1.49 1.46 1.56 1.75 2.05 2.48 2.88 2.93 2.60 2.11 2.44 2.73 2.52 2.65 2.49 2.34 2.23 1.86 1.65 1.64 1.78 1.93 1.96 1.98 1.94
1.30 1.17 1.24 1.52 1.61 1.73 1.72 1.82 1.95 1.87 1.66 1.60 1.52 1.45 1.44 1.49 1.56 1.71 2.05 2.35 2.51 2.39 2.05 2.44 3.08 2.82 2.70 2.40 2.29 2.36 2.11 1.81 1.64 1.64 1.75 2.03 2.00 1.93
1.30 1.40 1.48 1.61 1.61 1.52 1.60 1.70 1.70 1.61 1.68 1.69 1.52 1.40 1.39 1.50 1.58 1.63 1.79 2.08 2.26 2.21 2.14 2.25 2.71 2.82 2.85 2.64 2.23 2.19 2.27 2.17 1.86 1.78 1.77 1.79 1.71 1.66
1.50 1.56 1.64 1.62 1.52 1.41 1.45 1.45 1.39 1.49 1.65 1.64 1.48 1.33 1.31 1.44 1.62 1.72 1.83 1.98 2.21 2.22 2.16 2.25 2.53 2.94 2.96 2.45 2.24 2.18 2.07 2.29 2.17 1.96 1.82 1.75 1.59 1.40
1.67 1.74 1.67 1.59 1.55 1.43 1.31 1.24 1.28 1.45 1.57 1.46 1.42 1.39 1.37 1.41 1.50 1.62 1.85 2.00 2.16 2.17 2.21 2.36 2.51 2.75 2.87 2.79 2.63 2.24 1.96 1.92 2.00 1.99 1.93 1.92 1.80 1.55
1.87 1.77 1.55 1.41 1.37 1.32 1.30 1.27 1.21 1.24 1.31 1.38 1.41 1.42 1.42 1.45 1.47 1.48 1.67 1.93 2.09 2.07 2.13 2.28 2.46 2.72 2.92 3.03 2.86 2.43 2.04 1.89 1.96 2.03 2.00 2.07 2.09 1.82
1.75 1.53 1.33 1.25 1.23 1.21 1.21 1.19 1.17 1.10 1.14 1.26 1.30 1.35 1.41 1.46 1.50 1.51 1.56 1.72 1.91 2.02 2.12 2.22 2.41 2.71 2.89 2.94 2.96 2.63 2.34 2.07 2.02 2.20 2.21 2.13 2.14 1.96
1.46 1.38 1.29 1.20 1.17 1.21 1.23 1.22 1.18 1.16 1.19 1.22 1.25 1.26 1.35 1.47 1.51 1.49 1.49 1.63 1.79 1.91 2.01 2.11 2.36 2.68 2.95 2.82 2.85 2.80 2.70 2.43 2.21 2.31 2.34 2.22 2.14 2.11
1.30 1.28 1.24 1.23 1.21 1.22 1.25 1.27 1.27 1.25 1.22 1.23 1.23 1.22 1.25 1.37 1.41 1.35 1.38 1.52 1.71 1.84 1.92 1.92 2.05 2.34 2.61 2.67 2.62 2.54 2.70 2.78 2.48 2.43 2.45 2.47 2.40 2.30
1.21 1.25 1.26 1.25 1.26 1.27 1.29 1.30 1.30 1.25 1.22 1.22 1.19 1.18 1.20 1.26 1.30 1.31 1.37 1.46 1.53 1.64 1.76 1.79 1.88 2.17 2.54 2.79 2.67 2.45 2.52 2.69 2.72 2.56 2.53 2.62 2.84 2.90
1.32 1.31 1.29 1.28 1.27 1.30 1.32 1.30 1.27 1.20 1.14 1.15 1.15 1.15 1.20 1.25 1.23 1.26 1.32 1.39 1.47 1.54 1.64 1.80 1.91 2.08 2.35 2.56 2.65 2.54 2.42 2.45 2.54 2.57 2.74 2.60 2.25 2.11